Flag for India Weather past 2 weeks in Chandigarh, Chandigarh, India

Now
75 °F

Passing clouds.


Feels Like: 78 °F
Forecast: 79 / 90 °F
Wind: 3 mph from North

Location: Amritsar Airport

Current Time: Jun 3, 2015 at 1:14:19 AM

Latest Report: Jun 3, 2015 at 12:00 AM


Visibility: 2 mi

Pressure: 29.68 "Hg

Humidity: 54%

Dew point: 57 °F

Location of ChandigarhLocation

Historic Weather in Chandigarh — Graph

°F

Chandigarh temperature yesterday

Maximum temperature yesterday: 97 °F (at 1:30 PM)
Minimum temperature yesterday: 75 °F (at 3:30 AM)
Average temperature yesterday: 86 °F

Past Weeks' High & Low Weather Summary

 TemperatureHumidityPressure
High109 °F (May 23, 2:30 PM)74% (May 19, 4:00 AM)29.74 "Hg (May 19, 4:00 AM)
Low73 °F (May 19, 4:00 AM)7% (May 27, 4:00 PM)29.42 "Hg (May 23, 4:00 PM)
Average91 °F31%29.59 "Hg
* Reported May 18 7:30 PM — Jun 2 8:00 PM, Chandigarh, Weather by CustomWeather, © 2015

Note: Actual official high and low records may vary slightly from our data, if they occured in-between our weather recording intervals... More about our weather records

Advertising

Chandigarh weather history for previous 24 hours

 ConditionsComfort  
Time TempWeatherWind HumidityBarometerVisibility
8:00 PM
Tue, Jun 2
82 °FScattered clouds.6 mph42%29.71 "Hg2 mi
7:30 PM82 °FScattered clouds.12 mph42%29.71 "Hg2 mi
6:30 PM88 °FBroken clouds.7 mph33%29.71 "Hg3 mi
6:00 PM88 °FBroken clouds.9 mph31%29.71 "Hg3 mi
5:30 PM88 °FBroken clouds.12 mph31%29.71 "Hg3 mi
5:00 PM90 °FScattered clouds.16 mph31%29.71 "Hg3 mi
4:30 PM91 °FScattered clouds.16 mph30%29.71 "Hg3 mi
4:00 PM93 °FScattered clouds.15 mph28%29.71 "Hg3 mi
3:30 PM93 °FScattered clouds.16 mph28%29.71 "Hg3 mi
3:00 PM93 °FScattered clouds.16 mph26%29.71 "Hg3 mi
2:30 PM95 °FScattered clouds.16 mph25%29.71 "Hg3 mi
1:30 PM97 °FScattered clouds.9 mph23%29.74 "Hg3 mi
1:00 PM95 °FScattered clouds.7 mph26%29.74 "Hg3 mi
12:30 PM91 °FScattered clouds.7 mph30%29.74 "Hg3 mi
12:00 PM93 °FScattered clouds.7 mph30%29.74 "Hg3 mi
11:30 AM91 °FScattered clouds.10 mph30%29.74 "Hg3 mi
11:00 AM91 °FScattered clouds.13 mph28%29.74 "Hg3 mi
10:00 AM90 °FScattered clouds.7 mph29%29.74 "Hg3 mi
9:30 AM86 °FScattered clouds.7 mph33%29.71 "Hg3 mi
8:30 AM82 °FScattered clouds.7 mph40%29.71 "Hg3 mi
6:30 AM79 °FScattered clouds.8 mph51%29.68 "Hg2 mi
6:00 AM77 °FScattered clouds.8 mph57%29.68 "Hg2 mi
5:30 AM75 °FPassing clouds.1 mph61%29.68 "Hg2 mi
4:30 AM75 °FPassing clouds.9 mph61%29.68 "Hg2 mi
3:30 AM75 °FPassing clouds.2 mph61%29.65 "Hg2 mi
2:30 AM77 °FPartly cloudy.8 mph57%29.65 "Hg2 mi
1:30 AM77 °FMostly cloudy.No wind57%29.68 "Hg2 mi
Weather by CustomWeather, © 2015

See weather overviewHow to use our weather pages